CZ-6A DEB

Satellite information

Favourite Embed

Satellite Type and Status

DEBRISIN ORBIT

Key statistics

Satellite CZ-6A DEB at a glance.

Uptime

1083

Days in orbit

Revolutions

≈ 14.1

Per day

Orbit

SSO

Sun Synchronous Orbit

Inclination

98.8

Latest

Satellite identification and parameters

Extended collection of information and parameters for CZ-6A DEB.

Object identification

Identified? True

Debris? True

Object name: CZ-6A DEB

International designator: 2022-151NP

Object number (NORAD): 54613

Object ID (CCSDS): 54613

Country: PEOPLES REPUBLIC OF CHINA (PRC)

Current information (Y/N): Y

RCS size: SMALL

Orbital parameters

Period: 102.177 minutes

Inclination: 98.8384 deg

SMA: 7239.851 km

Apoapsis: 897.822 km

Periapsis: 825.609 km

RAAN: 298.1795 deg

Eccentricy: 0.00498718

Argument of periapsis: 256.8036 deg

Mean anomaly: 102.7567 deg

Mean motion: 14.09315823 rev/day

Mean motion (dot): 0.00000541 rev/day2

B* drag term: 0.00033212456 1/REarth

Two-line elements (TLE)

Creation date: Oct. 28, 2025, 2:18 a.m.

Reference frame: TEME

Reference center: EARTH

Epoch: Oct. 27, 2025, 11:01 p.m. UTC

TLE line 0: 0 CZ-6A DEB

TLE line 1: 1 54613U 22151NP 25300.95909317 .00000541 00000-0 33212-3 0 9997

TLE line 2: 2 54613 98.8384 298.1795 0049872 256.8036 102.7567 14.09315823151474

Live tracking on map

Real-time ground track for satellite CZ-6A DEB.

In-orbit conjunctions

A list of the most updated potential collisions computed for object CZ-6A DEB.

Target Orbit TCA Probability of collision Miss distance Type
ATLAS D DEB SSO 2025-08-11 10:07:07 0.0001308711 227.0 (m) DEBRIS
PEGASUS DEB LEO 2025-07-23 01:23:42 0.0007612406 52.0 (m) DEBRIS

Associated space launch

Chinese satellite reported for atmospheric/ocean/environmental/spatial parameter research purposes, details TBD.

CZ-6A DEB was lifted into orbit during the mission ‘Long March 6A | Yunhai 3’, on board a Long March 6A space rocket.

The launch took place on Nov. 11, 2022, 10:52 p.m. from Launch Complex 9A.

For more information about the launch, click the button.

Launch to space Long March 6A | Yunhai 3
Long March 6A | Yunhai 3

Agency: N/A

Status: Launch Successful

Launch date: Nov. 11, 2022, 10:52 p.m. UTC

Rocket: Long March 6A

Launch pad: Launch Complex 9A

Location: Taiyuan Satellite Launch Center, People's Republic of China

...

Latest news about this satellite

There are no fresh news available about this satellite. Check back as we update our databases every day.


Newsletter sign-up

Weekly statistics, charts and insights to help you stay on top of the space industry.